Simultaneous Nadir Overpasses (SNOs) Predictions

Prediction of SNOs between AQUA and METOP-B Satellite Orbit:

Table of predicted SNOs for the next 14.0 days since TLE Epoch: 5/13/2016
Index Date (AQUA) Time (AQUA) Lat,Lon (AQUA) SZA (AQUA ) Date (METOP-B) Time (METOP-B) Lat,Lon (METOP-B) SZA (METOP-B ) Distance(km) Time Diff (sec)
1 05/15/2016 12:56:46 -73.80, 160.16 125.27 05/15/2016 12:55:58 -73.81, 160.17 125.26 0.81 48
2 05/15/2016 13:46:15 73.89, -32.39 54.81 05/15/2016 13:46:36 73.89, -32.30 54.81 2.69 21
3 05/18/2016 08:30:55 -73.80,-133.39 125.90 05/18/2016 08:30:21 -73.79,-133.45 125.91 2.41 34
4 05/18/2016 09:20:24 73.89, 34.06 54.19 05/18/2016 09:20:59 73.87, 34.07 54.16 2.27 35
5 05/21/2016 04:05:05 -73.82, -66.97 126.47 05/21/2016 04:04:44 -73.82, -66.97 126.46 0.28 21
6 05/21/2016 04:54:34 73.91, 100.47 53.62 05/21/2016 04:55:22 73.90, 100.56 53.61 2.73 48
7 05/23/2016 22:49:43 73.52,-167.51 52.69 05/23/2016 22:48:33 73.45,-168.75 52.66 40.19 70
8 05/23/2016 23:39:15 -73.85, -0.58 126.98 05/23/2016 23:39:07 -73.85, -0.49 126.98 2.58 8
9 05/24/2016 00:28:43 73.89, 166.97 53.06 05/24/2016 00:29:46 73.88, 166.91 53.05 2.22 63
10 05/26/2016 18:23:57 73.78,-101.60 52.46 05/26/2016 18:22:50 73.77,-101.59 52.47 0.47 67
11 05/26/2016 19:13:24 -73.84, 65.90 127.48 05/26/2016 19:13:31 -73.82, 65.86 127.50 2.65 7




NCC Satellite Simultaneous Nadir Overpasses (SNOs) Prediction Service
